| time (UTC) | temp C | wind direction | speed KPH | gust KPH | rain 1hr cm | rain 24hr cm | rain mn cm | humidity % | barometer mb |
| 20260504081047 | 17 | 55 | 3.2 | 8.0 | 0.00 | 0.00 | 0.00 | 77 | 1015.2 |
| 20260504045556 | 18 | 55 | 4.8 | 14.5 | 0.00 | 0.00 | 0.00 | 73 | 1017.2 |
| 20260504044059 | 18 | 55 | 3.2 | 16.1 | 0.00 | 0.00 | 0.00 | 73 | 1017.3 |
| 20260504042616 | 18 | 55 | 3.2 | 9.7 | 0.00 | 0.00 | 0.00 | 72 | 1017.4 |
| 20260504041051 | 18 | 55 | 3.2 | 9.7 | 0.00 | 0.00 | 0.00 | 72 | 1017.5 |
| 20260504035555 | 18 | 55 | 3.2 | 11.3 | 0.00 | 0.00 | 0.00 | 72 | 1017.7 |
| 20260504034052 | 17 | 55 | 3.2 | 14.5 | 0.00 | 0.00 | 0.00 | 71 | 1017.5 |
| 20260504032609 | 17 | 55 | 1.6 | 3.2 | 0.00 | 0.00 | 0.00 | 69 | 1017.4 |
| 20260504031052 | 17 | 55 | 1.6 | 6.4 | 0.00 | 0.00 | 0.00 | 68 | 1017.3 |
| 20260504025531 | 18 | 55 | 0.0 | 1.6 | 0.00 | 0.00 | 0.00 | 66 | 1017.1 |
| 20260504024109 | 18 | 55 | 0.0 | 3.2 | 0.00 | 0.00 | 0.00 | 64 | 1016.9 |
| 20260504022547 | 18 | 55 | 0.0 | 1.6 | 0.00 | 0.00 | 0.00 | 64 | 1016.8 |
| 20260504021048 | 19 | 55 | 0.0 | 4.8 | 0.00 | 0.00 | 0.00 | 60 | 1016.6 |
| 20260504015549 | 20 | 55 | 0.0 | 1.6 | 0.00 | 0.00 | 0.00 | 59 | 1016.7 |
| 20260504014046 | 20 | 55 | 0.0 | 3.2 | 0.00 | 0.00 | 0.00 | 60 | 1016.7 |
| 20260504012546 | 21 | 55 | 0.0 | 3.2 | 0.00 | 0.00 | 0.00 | 55 | 1016.6 |
| 20260504011107 | 21 | 55 | 0.0 | 3.2 | 0.00 | 0.00 | 0.00 | 54 | 1016.5 |
| 20260504005543 | 22 | 55 | 0.0 | 4.8 | 0.00 | 0.00 | 0.00 | 55 | 1016.4 |
| 20260504004045 | 22 | 55 | 0.0 | 4.8 | 0.00 | 0.00 | 0.00 | 53 | 1016.5 |
| 20260504002546 | 23 | 55 | 0.0 | 3.2 | 0.00 | 0.00 | 0.00 | 52 | 1016.8 |
| 20260504001042 | 23 | 55 | 0.0 | 6.4 | 0.00 | 0.00 | 0.00 | 51 | 1016.9 |
| 20260503235545 | 23 | 55 | 0.0 | 11.3 | 0.00 | 0.00 | 0.00 | 49 | 1016.9 |
| 20260503234103 | 24 | 55 | 1.6 | 9.7 | 0.00 | 0.00 | 0.00 | 49 | 1016.9 |
| 20260503232600 | 24 | 55 | 1.6 | 16.1 | 0.00 | 0.00 | 0.00 | 48 | 1017.0 |
| 20260503231040 | 25 | 55 | 3.2 | 14.5 | 0.00 | 0.00 | 0.00 | 49 | 1017.1 |
| 20260503225621 | 25 | 55 | 4.8 | 14.5 | 0.00 | 0.00 | 0.00 | 47 | 1017.1 |
| 20260503224057 | 25 | 55 | 4.8 | 14.5 | 0.00 | 0.00 | 0.00 | 46 | 1017.3 |
| 20260503222557 | 25 | 55 | 3.2 | 11.3 | 0.00 | 0.00 | 0.00 | 47 | 1017.3 |
| 20260503221057 | 25 | 55 | 1.6 | 9.7 | 0.00 | 0.00 | 0.00 | 46 | 1017.6 |
| 20260503215601 | 26 | 55 | 4.8 | 14.5 | 0.00 | 0.00 | 0.00 | 46 | 1017.8 |
| 20260503214058 | 26 | 55 | 3.2 | 14.5 | 0.00 | 0.00 | 0.00 | 44 | 1018.0 |
| 20260503212558 | 26 | 55 | 4.8 | 17.7 | 0.00 | 0.00 | 0.00 | 44 | 1018.1 |
| 20260503211100 | 26 | 55 | 0.0 | 16.1 | 0.00 | 0.00 | 0.00 | 45 | 1018.2 |
| 20260503205557 | 26 | 55 | 3.2 | 6.4 | 0.00 | 0.00 | 0.00 | 43 | 1018.7 |
| 20260503204054 | 26 | 55 | 3.2 | 11.3 | 0.00 | 0.00 | 0.00 | 44 | 1018.9 |
| 20260503202558 | 26 | 55 | 1.6 | 8.0 | 0.00 | 0.00 | 0.00 | 43 | 1019.2 |
| 20260503201057 | 27 | 55 | 3.2 | 14.5 | 0.00 | 0.00 | 0.00 | 44 | 1019.4 |
| 20260503195553 | 27 | 55 | 4.8 | 14.5 | 0.00 | 0.00 | 0.00 | 42 | 1019.6 |
| 20260503194117 | 27 | 55 | 3.2 | 8.0 | 0.00 | 0.00 | 0.00 | 45 | 1019.8 |
| 20260503192610 | 26 | 55 | 3.2 | 14.5 | 0.00 | 0.00 | 0.00 | 48 | 1020.2 |